Weather History for La Grande, OR

Change the Weather History Date:

Wednesday, January 2, 2013

  Actual Average Record
Temperature  
Mean Temperature 20 °F -  
Max Temperature 24 °F 36 °F 48 °F (1997)
Min Temperature 17 °F 25 °F 2 °F (1974)
Degree Days  
Heating Degree Days 44    
Moisture  
Dew Point 9 °F    
Average Humidity 62    
Maximum Humidity 73    
Minimum Humidity 54    
Precipitation  
Precipitation 0.00 in - - ()
Sea Level Pressure  
Sea Level Pressure 30.46 in    
Wind  
Wind Speed 11 mph (South)    
Max Wind Speed 25 mph    
Max Gust Speed 37 mph    
Visibility 10 miles    
Events      
Averages and records for this station are not official NWS values.
T = Trace of Precipitation, MM = Missing Value Source: NWS Daily Summary

Daily Weather History Graph

Daily Weather History Graph

Search for Another Location

Airport:

Trip Planner

Search our weather history database for the weather conditions in past years. The results will help you decide how hot, cold, wet, or windy it might be!

Date:

Astronomy

Jan. 02, 2013 Rise Set
Actual Time 7:31 AM PST 4:21 PM PST
Civil Twilight 6:57 AM PST 4:55 PM PST
Nautical Twilight 6:20 AM PST 5:32 PM PST
Astronomical Twilight 5:44 AM PST 6:08 PM PST
Moon 10:16 PM PST (1/2) 9:59 AM PST (1/2)
Length of Visible Light 9h 57m
Length of Day
8h 50m
Waning Gibbous, 74% of the Moon is Illuminated
Jan 2
Waning Gibbous
Jan 4
Last Quarter
Jan 11
New
Jan 18
First Quarter
Jan 26
Full

Hourly Weather History & Observations

Time (PST) Temp. Windchill Dew Point Humidity Pressure Visibility Wind Dir Wind Speed Gust Speed Precip Events Conditions
12:15 AM 21.2 °F 10.9 °F 10.4 °F 63% 30.49 in 10.0 mi South 9.2 mph - N/A   Overcast
12:35 AM 19.4 °F 7.2 °F 10.4 °F 68% 30.49 in 10.0 mi SSW 11.5 mph - N/A   Overcast
12:55 AM 19.4 °F 7.9 °F 10.4 °F 68% 30.49 in 10.0 mi SSW 10.4 mph - N/A   Overcast
1:15 AM 19.4 °F 8.6 °F 10.4 °F 68% 30.49 in 10.0 mi SSW 9.2 mph - N/A   Overcast
1:35 AM 19.4 °F 7.9 °F 10.4 °F 68% 30.49 in 10.0 mi SSW 10.4 mph - N/A   Overcast
1:55 AM 19.4 °F 6.6 °F 10.4 °F 68% 30.48 in 10.0 mi SSW 12.7 mph 16.1 mph N/A   Overcast
2:15 AM 19.4 °F 9.5 °F 10.4 °F 68% 30.48 in 10.0 mi SSW 8.1 mph - N/A   Overcast
2:35 AM 19.4 °F 10.4 °F 10.4 °F 68% 30.48 in 10.0 mi SSW 6.9 mph - N/A   Overcast
2:55 AM 17.6 °F 7.3 °F 8.6 °F 68% 30.48 in 10.0 mi SSW 8.1 mph - N/A   Overcast
3:15 AM 17.6 °F 7.3 °F 10.4 °F 73% 30.48 in 10.0 mi SW 8.1 mph - N/A   Overcast
3:35 AM 17.6 °F 7.3 °F 8.6 °F 68% 30.48 in 10.0 mi SW 8.1 mph - N/A   Mostly Cloudy
4:15 AM 17.6 °F 10.7 °F 8.6 °F 68% 30.48 in 10.0 mi South 4.6 mph - N/A   Scattered Clouds
4:35 AM 19.4 °F 14.3 °F 10.4 °F 68% 30.48 in 10.0 mi South 3.5 mph - N/A   Overcast
4:55 AM 19.4 °F 14.3 °F 10.4 °F 68% 30.48 in 10.0 mi WSW 3.5 mph - N/A   Overcast
5:15 AM 19.4 °F 8.6 °F 10.4 °F 68% 30.47 in 10.0 mi SSW 9.2 mph - N/A   Overcast
5:35 AM 19.4 °F 8.6 °F 10.4 °F 68% 30.47 in 10.0 mi SW 9.2 mph - N/A   Overcast
5:55 AM 19.4 °F 11.5 °F 10.4 °F 68% 30.47 in 10.0 mi South 5.8 mph - N/A   Overcast
6:15 AM 19.4 °F 10.4 °F 10.4 °F 68% 30.48 in 10.0 mi South 6.9 mph - N/A   Overcast
6:35 AM 19.4 °F 10.4 °F 10.4 °F 68% 30.48 in 10.0 mi South 6.9 mph - N/A   Overcast
7:15 AM 19.4 °F 10.4 °F 10.4 °F 68% 30.48 in 10.0 mi SSE 6.9 mph - N/A   Overcast
7:35 AM 19.4 °F - 10.4 °F 68% 30.48 in 10.0 mi Calm Calm - N/A   Overcast
7:55 AM 19.4 °F - 10.4 °F 68% 30.47 in 10.0 mi Calm Calm - N/A   Overcast
8:15 AM 19.4 °F 14.3 °F 10.4 °F 68% 30.47 in 10.0 mi East 3.5 mph - N/A   Overcast
8:35 AM 21.2 °F - 12.2 °F 68% 30.47 in 10.0 mi Calm Calm - N/A   Overcast
8:55 AM 21.2 °F 16.4 °F 10.4 °F 63% 30.48 in 10.0 mi SSE 3.5 mph - N/A   Overcast
9:15 AM 21.2 °F 10.9 °F 10.4 °F 63% 30.48 in 10.0 mi South 9.2 mph 16.1 mph N/A   Overcast
9:35 AM 21.2 °F 14.9 °F 10.4 °F 63% 30.49 in 10.0 mi SSE 4.6 mph - N/A   Overcast
9:55 AM 21.2 °F - 10.4 °F 63% 30.50 in 10.0 mi Calm Calm - N/A   Overcast
10:15 AM 21.2 °F 7.3 °F 12.2 °F 68% 30.49 in 10.0 mi South 16.1 mph 19.6 mph N/A   Overcast
10:35 AM 23.0 °F 10.1 °F 12.2 °F 63% 30.49 in 10.0 mi South 15.0 mph 19.6 mph N/A   Overcast
10:55 AM 24.8 °F 14.0 °F 12.2 °F 59% 30.49 in 10.0 mi South 11.5 mph 16.1 mph N/A   Overcast
11:15 AM 24.8 °F 12.9 °F 10.4 °F 54% 30.49 in 10.0 mi South 13.8 mph 18.4 mph N/A   Overcast
11:35 AM 24.8 °F 12.9 °F 10.4 °F 54% 30.48 in 10.0 mi SSE 13.8 mph 19.6 mph N/A   Overcast
11:55 AM 24.8 °F 11.5 °F 10.4 °F 54% 30.48 in 10.0 mi South 17.3 mph 24.2 mph N/A   Mostly Cloudy
12:15 PM 24.8 °F 12.9 °F 10.4 °F 54% 30.48 in 10.0 mi South 13.8 mph 23.0 mph N/A   Scattered Clouds
12:35 PM 24.8 °F 11.1 °F 10.4 °F 54% 30.47 in 10.0 mi South 18.4 mph 23.0 mph N/A   Clear
12:55 PM 23.0 °F 10.1 °F 10.4 °F 59% 30.46 in 10.0 mi SSE 15.0 mph 23.0 mph N/A   Clear
1:15 PM 24.8 °F 12.9 °F 10.4 °F 54% 30.46 in 10.0 mi South 13.8 mph 20.7 mph N/A   Clear
1:35 PM 24.8 °F 12.4 °F 10.4 °F 54% 30.46 in 10.0 mi South 15.0 mph 18.4 mph N/A   Clear
1:55 PM 24.8 °F 11.5 °F 10.4 °F 54% 30.46 in 10.0 mi South 17.3 mph - N/A   Clear
2:15 PM 24.8 °F 12.4 °F 10.4 °F 54% 30.46 in 10.0 mi South 15.0 mph 24.2 mph N/A   Clear
2:35 PM 23.0 °F 8.3 °F 8.6 °F 54% 30.46 in 10.0 mi South 19.6 mph 24.2 mph N/A   Clear
2:55 PM 23.0 °F 9.6 °F 8.6 °F 54% 30.46 in 10.0 mi South 16.1 mph 21.9 mph N/A   Clear
3:15 PM 23.0 °F 10.6 °F 8.6 °F 54% 30.45 in 10.0 mi South 13.8 mph 23.0 mph N/A   Clear
3:35 PM 21.2 °F 7.8 °F 8.6 °F 58% 30.45 in 10.0 mi South 15.0 mph 20.7 mph N/A   Clear
3:55 PM 21.2 °F 8.3 °F 8.6 °F 58% 30.46 in 10.0 mi South 13.8 mph - N/A   Clear
4:15 PM 21.2 °F 6.0 °F 8.6 °F 58% 30.46 in 10.0 mi South 19.6 mph 24.2 mph N/A   Clear
4:35 PM 21.2 °F 9.5 °F 8.6 °F 58% 30.46 in 10.0 mi South 11.5 mph 24.2 mph N/A   Clear
4:55 PM 21.2 °F 8.3 °F 8.6 °F 58% 30.46 in 10.0 mi South 13.8 mph - N/A   Clear
5:15 PM 21.2 °F 8.3 °F 8.6 °F 58% 30.46 in 10.0 mi SSE 13.8 mph 19.6 mph N/A   Clear
5:55 PM 19.4 °F 5.5 °F 8.6 °F 63% 30.45 in 10.0 mi SSE 15.0 mph 18.4 mph N/A   Clear
6:15 PM 19.4 °F 5.0 °F 8.6 °F 63% 30.45 in 10.0 mi South 16.1 mph 23.0 mph N/A   Clear
6:35 PM 19.4 °F 5.5 °F 8.6 °F 63% 30.45 in 10.0 mi SSE 15.0 mph 19.6 mph N/A   Clear
6:55 PM 19.4 °F 5.5 °F 6.8 °F 58% 30.45 in 10.0 mi SSE 15.0 mph 23.0 mph N/A   Clear
7:15 PM 19.4 °F 6.0 °F 6.8 °F 58% 30.44 in 10.0 mi South 13.8 mph 21.9 mph N/A   Clear
7:35 PM 19.4 °F 5.5 °F 6.8 °F 58% 30.44 in 10.0 mi SSE 15.0 mph 20.7 mph N/A   Clear
7:55 PM 19.4 °F 5.5 °F 6.8 °F 58% 30.44 in 10.0 mi SSE 15.0 mph 20.7 mph N/A   Clear
8:15 PM 19.4 °F 4.5 °F 6.8 °F 58% 30.44 in 10.0 mi SSE 17.3 mph 24.2 mph N/A   Clear
8:35 PM 19.4 °F 5.5 °F 6.8 °F 58% 30.44 in 10.0 mi SSE 15.0 mph 23.0 mph N/A   Clear
8:55 PM 19.4 °F 4.5 °F 6.8 °F 58% 30.43 in 10.0 mi South 17.3 mph 25.3 mph N/A   Clear
9:15 PM 19.4 °F 5.0 °F 6.8 °F 58% 30.43 in 10.0 mi South 16.1 mph 24.2 mph N/A   Clear
9:35 PM 19.4 °F 5.5 °F 6.8 °F 58% 30.44 in 10.0 mi South 15.0 mph 28.8 mph N/A   Clear
9:55 PM 19.4 °F 3.6 °F 6.8 °F 58% 30.43 in 10.0 mi SSE 19.6 mph 36.8 mph N/A   Clear
10:15 PM 19.4 °F 1.8 °F 6.8 °F 58% 30.43 in 10.0 mi South 25.3 mph 32.2 mph N/A   Clear
10:35 PM 19.4 °F 2.8 °F 6.8 °F 58% 30.43 in 10.0 mi South 21.9 mph 27.6 mph N/A   Clear
10:55 PM 19.4 °F 3.2 °F 6.8 °F 58% 30.42 in 10.0 mi South 20.7 mph 31.1 mph N/A   Clear
11:15 PM 19.4 °F 4.1 °F 6.8 °F 58% 30.42 in 10.0 mi South 18.4 mph 26.5 mph N/A   Clear
11:35 PM 19.4 °F 3.6 °F 6.8 °F 58% 30.41 in 10.0 mi South 19.6 mph 29.9 mph N/A   Clear
11:55 PM 17.6 °F 1.3 °F 6.8 °F 63% 30.41 in 10.0 mi South 19.6 mph 31.1 mph N/A   Clear